EN

Hourly Weather Amapá

Today, 18 January, Monday

Time Temperature Precipitation Wind Pressure Humidity
00:00 +24°C° 0 mm 0 mps 751 mmHg 83%
01:00 +24°C° 0 mm 0 mps 750 mmHg 84%
02:00 +24°C° 0 mm 0 mps 750 mmHg 86%
03:00 +24°C° 0.1 mm 0 mps 750 mmHg 88%
04:00 +23°C° 0.1 mm 0 mps 750 mmHg 91%
05:00 +23°C° 0.1 mm 0 mps 750 mmHg 93%
06:00 +23°C° 1.4 mm 0 mps 751 mmHg 95%
07:00 +24°C° 1.4 mm 0 mps 751 mmHg 96%
08:00 +24°C° 1.4 mm 0 mps 752 mmHg 98%
09:00 +24°C° 1 mm 0 mps 752 mmHg 96%
10:00 +25°C° 1 mm 0 mps 752 mmHg 95%
11:00 +26°C° 1 mm 0 mps 753 mmHg 94%
12:00 +28°C° 0.5 mm 0 mps 752 mmHg 82%
13:00 +30°C° 0.5 mm 0 mps 751 mmHg 70%
14:00 +34°C° 0.5 mm 1 mps 750 mmHg 58%
15:00 +33°C° 0.9 mm 1 mps 750 mmHg 67%
16:00 +31°C° 0.9 mm 1 mps 749 mmHg 77%
17:00 +30°C° 0.9 mm 1 mps 749 mmHg 87%
18:00 +27°C° 0.7 mm 0 mps 749 mmHg 89%
19:00 +26°C° 0.7 mm 0 mps 750 mmHg 92%
20:00 +24°C° 0.7 mm 0 mps 751 mmHg 94%
21:00 +24°C° 0.9 mm 0 mps 751 mmHg 95%
22:00 +24°C° 0.9 mm 0 mps 752 mmHg 96%
23:00 +26°C° 0.9 mm 1 mps 752 mmHg 97%

Tomorrow, 19 January, Tuesday

Time Temperature Precipitation Wind Pressure Humidity
00:00 +23°C° 2.1 mm 0 mps 752 mmHg 97%
01:00 +23°C° 2.1 mm 0 mps 752 mmHg 98%
02:00 +23°C° 2.1 mm 0 mps 751 mmHg 98%
03:00 +23°C° 6.4 mm 0 mps 751 mmHg 98%
04:00 +25°C° 6.4 mm 1 mps 751 mmHg 99%
05:00 +25°C° 6.4 mm 1 mps 751 mmHg 99%
06:00 +23°C° 17.1 mm 0 mps 752 mmHg 99%
07:00 +22°C° 17.1 mm 0 mps 752 mmHg 99%
08:00 +22°C° 17.1 mm 0 mps 753 mmHg 99%
09:00 +23°C° 4.8 mm 0 mps 753 mmHg 99%
10:00 +23°C° 4.8 mm 0 mps 753 mmHg 99%
11:00 +23°C° 4.8 mm 0 mps 754 mmHg 99%
12:00 +23°C° 0.6 mm 0 mps 753 mmHg 98%
13:00 +24°C° 0.6 mm 0 mps 752 mmHg 98%
14:00 +26°C° 0.6 mm 1 mps 752 mmHg 97%
15:00 +26°C° 0.3 mm 1 mps 751 mmHg 97%
16:00 +25°C° 0.3 mm 1 mps 751 mmHg 98%
17:00 +25°C° 0.3 mm 1 mps 750 mmHg 98%
18:00 +23°C° 0 mm 0 mps 751 mmHg 98%
19:00 +23°C° 0 mm 0 mps 751 mmHg 98%
20:00 +22°C° 0 mm 0 mps 752 mmHg 99%
21:00 +22°C° 0 mm 0 mps 752 mmHg 98%
22:00 +22°C° 0 mm 0 mps 752 mmHg 98%
23:00 +22°C° 0 mm 0 mps 752 mmHg 98%

Day after tomorrow, 20 January, Wednesday

Time Temperature Precipitation Wind Pressure Humidity
00:00 +22°C° 0 mm 0 mps 752 mmHg 98%
01:00 +22°C° 0 mm 0 mps 752 mmHg 98%
02:00 +22°C° 0 mm 0 mps 751 mmHg 98%
03:00 +22°C° 0.3 mm 0 mps 751 mmHg 98%
04:00 +22°C° 0.3 mm 0 mps 751 mmHg 99%
05:00 +22°C° 0.3 mm 0 mps 751 mmHg 99%
06:00 +22°C° 0.3 mm 0 mps 752 mmHg 98%
07:00 +23°C° 0.3 mm 0 mps 753 mmHg 98%
08:00 +23°C° 0.3 mm 0 mps 753 mmHg 97%
09:00 +23°C° 0.3 mm 0 mps 753 mmHg 96%
10:00 +24°C° 0.3 mm 0 mps 753 mmHg 94%
11:00 +25°C° 0.3 mm 0 mps 753 mmHg 93%
12:00 +26°C° 0.9 mm 0 mps 752 mmHg 90%
13:00 +27°C° 0.9 mm 0 mps 752 mmHg 86%
14:00 +30°C° 0.9 mm 1 mps 751 mmHg 83%
15:00 +27°C° 1.6 mm 0 mps 750 mmHg 87%
16:00 +26°C° 1.6 mm 0 mps 750 mmHg 91%
17:00 +26°C° 1.6 mm 0 mps 750 mmHg 94%
18:00 +25°C° 1.6 mm 0 mps 751 mmHg 96%
19:00 +24°C° 1.6 mm 0 mps 751 mmHg 97%
20:00 +23°C° 1.6 mm 0 mps 752 mmHg 98%
21:00 +23°C° 1.2 mm 0 mps 752 mmHg 98%
22:00 +23°C° 1.2 mm 0 mps 752 mmHg 98%
23:00 +23°C° 1.2 mm 0 mps 753 mmHg 99%

21 January, Thursday

Time Temperature Precipitation Wind Pressure Humidity
00:00 +22°C° 0.9 mm 0 mps 752 mmHg 99%
01:00 +22°C° 0.9 mm 0 mps 752 mmHg 99%
02:00 +22°C° 0.9 mm 0 mps 751 mmHg 99%
03:00 +22°C° 0.5 mm 0 mps 752 mmHg 99%
04:00 +22°C° 0.5 mm 0 mps 752 mmHg 99%
05:00 +22°C° 0.5 mm 0 mps 752 mmHg 99%
06:00 +22°C° 0.2 mm 0 mps 753 mmHg 99%
07:00 +22°C° 0.2 mm 0 mps 753 mmHg 98%
08:00 +22°C° 0.2 mm 0 mps 754 mmHg 98%
09:00 +23°C° 0.1 mm 0 mps 754 mmHg 98%
10:00 +23°C° 0.1 mm 0 mps 754 mmHg 97%
11:00 +23°C° 0.1 mm 0 mps 754 mmHg 96%
12:00 +23°C° 0.6 mm 0 mps 753 mmHg 96%
13:00 +24°C° 0.6 mm 0 mps 753 mmHg 96%
14:00 +26°C° 0.6 mm 1 mps 752 mmHg 95%
15:00 +26°C° 0.5 mm 1 mps 752 mmHg 95%
16:00 +24°C° 0.5 mm 0 mps 751 mmHg 96%
17:00 +23°C° 0.5 mm 0 mps 751 mmHg 96%
18:00 +23°C° 0 mm 0 mps 751 mmHg 96%
19:00 +23°C° 0 mm 0 mps 751 mmHg 97%
20:00 +22°C° 0 mm 0 mps 751 mmHg 98%
21:00 +22°C° 0 mm 0 mps 752 mmHg 98%
22:00 +22°C° 0 mm 0 mps 752 mmHg 98%
23:00 +22°C° 0 mm 0 mps 752 mmHg 98%

22 January, Friday

Time Temperature Precipitation Wind Pressure Humidity
00:00 +22°C° 0.1 mm 0 mps 752 mmHg 98%
01:00 +22°C° 0.1 mm 0 mps 752 mmHg 98%
02:00 +22°C° 0.1 mm 0 mps 752 mmHg 99%
03:00 +22°C° 0.3 mm 0 mps 752 mmHg 99%
04:00 +22°C° 0.3 mm 0 mps 752 mmHg 99%
05:00 +22°C° 0.3 mm 0 mps 752 mmHg 99%
06:00 +22°C° 0.1 mm 0 mps 753 mmHg 99%
07:00 +22°C° 0.1 mm 0 mps 753 mmHg 99%
08:00 +22°C° 0.1 mm 0 mps 754 mmHg 98%
09:00 +23°C° 0.3 mm 0 mps 754 mmHg 97%
10:00 +23°C° 0.3 mm 0 mps 754 mmHg 96%
11:00 +24°C° 0.3 mm 0 mps 754 mmHg 94%
12:00 +25°C° 0.7 mm 0 mps 753 mmHg 91%
13:00 +26°C° 0.7 mm 0 mps 752 mmHg 88%
14:00 +29°C° 0.7 mm 1 mps 751 mmHg 85%
15:00 +29°C° 0.3 mm 1 mps 751 mmHg 86%
16:00 +28°C° 0.3 mm 1 mps 750 mmHg 87%
17:00 +28°C° 0.3 mm 1 mps 750 mmHg 88%
18:00 +27°C° 0.1 mm 1 mps 751 mmHg 91%
19:00 +26°C° 0.1 mm 1 mps 751 mmHg 94%
20:00 +23°C° 0.1 mm 0 mps 752 mmHg 97%
21:00 +23°C° 0.1 mm 0 mps 752 mmHg 97%
22:00 +23°C° 0.1 mm 0 mps 752 mmHg 97%
23:00 +23°C° 0.1 mm 0 mps 753 mmHg 97%

23 January, Saturday

Time Temperature Precipitation Wind Pressure Humidity
00:00 +22°C° 0.5 mm 0 mps 752 mmHg 97%
01:00 +22°C° 0.5 mm 0 mps 752 mmHg 98%
02:00 +22°C° 0.5 mm 0 mps 751 mmHg 98%
03:00 +22°C° 0.4 mm 0 mps 751 mmHg 98%
04:00 +22°C° 0.4 mm 0 mps 751 mmHg 98%
05:00 +22°C° 0.4 mm 0 mps 751 mmHg 99%
06:00 +22°C° 0 mm 0 mps 752 mmHg 97%
07:00 +23°C° 0 mm 0 mps 752 mmHg 96%
08:00 +24°C° 0 mm 0 mps 753 mmHg 94%
09:00 +27°C° 0 mm 0 mps 753 mmHg 82%
10:00 +31°C° 0 mm 1 mps 753 mmHg 70%
11:00 +34°C° 0 mm 1 mps 753 mmHg 57%
12:00 +34°C° 0 mm 1 mps 752 mmHg 56%
13:00 +34°C° 0 mm 1 mps 751 mmHg 54%
14:00 +34°C° 0 mm 1 mps 750 mmHg 53%
15:00 +33°C° 0.9 mm 1 mps 750 mmHg 66%
16:00 +32°C° 0.9 mm 1 mps 749 mmHg 79%
17:00 +28°C° 0.9 mm 0 mps 749 mmHg 91%
18:00 +27°C° 0.4 mm 0 mps 750 mmHg 92%
19:00 +25°C° 0.4 mm 0 mps 750 mmHg 94%
20:00 +24°C° 0.4 mm 0 mps 751 mmHg 95%
21:00 +24°C° 0.2 mm 0 mps 751 mmHg 96%
22:00 +23°C° 0.2 mm 0 mps 752 mmHg 97%
23:00 +25°C° 0.2 mm 1 mps 752 mmHg 97%
Show more